Printer-friendly version
Follow the MPC on Twitter Follow the MPC on Facebook The MPC blog
Minor Planet Center

MPEC 2008-U82 : 2008 UV91

The following Minor Planet Electronic Circular may be linked-to from your own Web pages, but must not otherwise be redistributed electronically.

A form allowing access to any MPEC is at the bottom of this page.


Read MPEC 2008-U81 Read MPEC 2008-U83


M.P.E.C. 2008-U82                                Issued 2008 Oct. 29, 14:20 UT

     The Minor Planet Electronic Circulars contain information on unusual
         minor planets and routine data on comets.  They are published
   on behalf of Commission 20 of the International Astronomical Union by the
          Minor Planet Center, Smithsonian Astrophysical Observatory,
                          Cambridge, MA 02138, U.S.A.

             Prepared using the Tamkin Foundation Computer Network

                              MPC@CFA.HARVARD.EDU
          URL http://www.cfa.harvard.edu/iau/mpc.html  ISSN 1523-6714

                                   2008 UV91

Observations:
     K08U91V* C2008 10 28.14388 21 45 25.52 -19 27 44.1          21.1 V EU082G96
     K08U91V  C2008 10 28.14870 21 45 25.12 -19 27 36.5          20.9 V EU082G96
     K08U91V  C2008 10 28.15358 21 45 24.69 -19 27 29.1          21.4 V EU082G96
     K08U91V  C2008 10 28.15844 21 45 24.37 -19 27 20.8          21.8 V EU082G96
     K08U91V  C2008 10 28.18788 21 45 22.20 -19 26 33.5          20.9 V EU082G96
     K08U91V  C2008 10 28.18991 21 45 22.03 -19 26 30.2          20.7 V EU082G96
     K08U91V  C2008 10 28.19194 21 45 21.82 -19 26 27.9          21.3 V EU082G96
     K08U91V  C2008 10 28.19398 21 45 21.67 -19 26 24.2          21.6 V EU082G96
     K08U91V  C2008 10 29.10577 21 44 19.39 -19 02 00.4          21.9 V EU082291
     K08U91V  C2008 10 29.10960 21 44 19.13 -19 01 55.1          21.5 V EU082291
     K08U91V  C2008 10 29.11353 21 44 18.87 -19 01 48.1          21.7 V EU082291
     K08U91V  C2008 10 29.16044 21 44 15.45 -19 00 32.6          20.9 V EU082G96
     K08U91V  C2008 10 29.17279 21 44 14.61 -19 00 12.8          21.9 V EU082G96
     K08U91V  C2008 10 29.17888 21 44 14.13 -19 00 02.4                 EU082G96

Observer details:
291 LPL/Spacewatch II.  Observer T. H. Bressi.  1.8-m f/2.7 reflector + CCD.
G96 Mt. Lemmon Survey.  Observers A. Boattini, E. Beshore.  Measurers
    E. C. Beshore, A. Boattini, G. J. Garradd, A. R. Gibbs, A. D. Grauer,
    R. E. Hill, R. A. Kowalski, S. M. Larson, R. H. McNaught.  1.5-m reflector
    + CCD.

Orbital elements:
2008 UV91                                                Earth MOID = 0.1307 AU
Epoch 2008 Oct. 21.0 TT = JDT 2454760.5                 MPC
M 326.70751              (2000.0)            P               Q
n   0.37648951     Peri.   86.52325     -0.17494322     -0.98034582
a   1.8994774      Node    14.54919     +0.69578945     -0.18863379
e   0.5712774      Incl.   21.28642     +0.69661461     -0.05778728
P   2.62           H   19.9           G   0.15
From 14 observations 2008 Oct. 28-29.

Ephemeris:
2008 UV91                a,e,i = 1.90, 0.57, 21                  q = 0.8143
Date    TT    R. A. (2000) Decl.     Delta      r     Elong.  Phase     V
2008 10 21    21 55.63   -22 28.5    0.642    1.394   115.1    40.3    21.2
2008 10 31    21 42.33   -18 10.4    0.645    1.308   103.9    47.4    21.3
2008 11 10    21 35.43   -13 23.4    0.650    1.221    93.9    54.0    21.4
2008 11 20    21 33.53   -08 14.8    0.650    1.135    85.1    60.1    21.4
2008 11 30    21 35.09   -02 44.5    0.642    1.053    77.4    66.1    21.4
2008 12 10    21 38.50   +03 10.6    0.623    0.976    70.7    72.3    21.3
2008 12 20    21 41.93   +09 32.9    0.591    0.908    65.0    78.9    21.3
2008 12 30    21 43.28   +16 21.6    0.548    0.856    60.3    85.9    21.3
2009 01 09    21 39.87   +23 28.8    0.496    0.823    56.7    93.0    21.3
2009 01 19    21 28.33   +30 34.8    0.437    0.815    54.8    99.2    21.2
2009 01 29    21 04.94   +37 12.1    0.375    0.831    55.4   102.8    21.1
2009 02 08    20 24.95   +42 50.0    0.315    0.871    59.6   102.2    20.8
2009 02 18    19 20.93   +46 46.5    0.258    0.928    69.1    95.9    20.2
2009 02 28    17 41.69   +47 06.8    0.209    0.999    86.2    81.7    19.4
2009 03 10    15 34.14   +38 51.8    0.182    1.078   113.3    57.8    18.4
2009 03 20    13 48.22   +21 53.4    0.195    1.162   145.5    29.1    18.0
2009 03 30    12 45.17   +06 49.4    0.253    1.248   169.1     8.7    18.0
2009 04 09    12 11.73   -02 21.7    0.343    1.335   164.4    11.6    18.9
2009 04 19    11 55.28   -07 39.3    0.454    1.421   152.1    19.3    19.9
2009 04 29    11 48.88   -10 54.4    0.580    1.506   141.7    24.5    20.7
2009 05 09    11 48.88   -13 07.7    0.719    1.589   132.9    27.7    21.4
2009 05 19    11 53.08   -14 49.1    0.868    1.669   125.1    29.7    22.0
2009 05 29    12 00.21   -16 14.4    1.025    1.747   118.0    30.8    22.5

Timothy B. Spahr             (C) Copyright 2008 MPC           M.P.E.C. 2008-U82

Read MPEC 2008-U81 Read MPEC 2008-U83


MPEC number:

Enter an MPEC number in one of the following forms:

  • 1997-B01 (the full form)
  • J97B01 (the packed version of the full form)
  • B01 (the abbreviated form)

Valid HTML 4.01!